SENTINEL-2C

Last updated on Thu Jul 03 2025 00:02:31 GMT+0000 (Coordinated Universal Time)

1 60989U 24157A 25183.45252356 .00000081 00000+0 47706-4 0 9998 2 60989 98.5683 258.3377 0001186 95.7723 264.3595 14.30814344 42975
UTC large
Height (km)
Speed (km/s)
/
Latitude / Longitude
Inclination (degrees)
Orbital Period (minutes)
Azimuth
Elevation
Range (km)
Doppler Factor

Next 0 passes for location: London (51.5072 / 0.1276)

Sorry there are no passes over London.